User: anonymous   Login
Location: Kumla
(59.1265°N, 15.1401°E)
Time: 00:17:59
(UTC+02:00)
Language:

THORAD DELTA 1 DEB - Orbit

View from above orbital plane
View from above orbital plane
View from above satellite
View from above satellite

Ground track
Ground track

The orbit data is extracted from the following two-line orbital elements,

1 42597U 74089FN  24147.68063006  .00000457  00000-0  23654-2 0  9990
2 42597 101.4729 125.3108 0195662 121.3128 240.7272 12.69099767487032
Epoch (UTC): 26 May 2024 16:20:06
Eccentricity: 0.0195662
inclination: 101.4729°
perigee height: 1234 km
apogee height: 1537 km
right ascension of ascending node: 125.3108°
argument of perigee: 121.3128°
revolutions per day: 12.69099767
mean anomaly at epoch: 240.7272°
orbit number at epoch: 48703

The dashed part of the orbit path shows where the satellite is in the earth's shadow,  

DLR